Regional Weather Roundup
Issued by NWS

Home | Current Version | Previous Version | Graphics & Text | Print | Product List | Glossary On
Versions: 1 2 3 4 5 6 7 8 9 10 11 12 13 14 15 16 17 18 19 20 21 22 23 24 25 26 27 28 29 30 31 32 33 34 35 36 37 38 39 40 41 42 43 44 45 46 47 48 49 50
000
ASUS43 KIND 192009
RWRIN

WEATHER ROUNDUP FOR INDIANA
NATIONAL WEATHER SERVICE INDIANAPOLIS IN
400 PM EDT TUE AUG 19 2014

NOTE: "FAIR" INDICATES FEW OR NO CLOUDS BELOW 12,000 FEET WITH NO
SIGNIFICANT WEATHER AND/OR OBSTRUCTIONS TO VISIBILITY.

* - STATION DOES NOT REPORT WEATHER SUCH AS PRECIPITATION OR FOG.

+ - STATION NOT QUALITY CONTROLLED BY THE NATIONAL WEATHER SERVICE.
    USE DATA WITH CAUTION...ESPECIALLY DEWPOINT AND RELATIVE
    HUMIDITY OBSERVATIONS.

INZ001>003-010>013-019-020-192100-
NORTHWEST INDIANA

CITY           SKY/WX    TMP DP  RH WIND       PRES   REMARKS
GARY /AIRPORT/ PTSUNNY   79  66  65 MISG      29.73F
KNOX *+        CLOUDY    71  66  86 SW9       29.75F
LA PORTE +     CLOUDY    79  64  60 SW14G22   29.75F
MICHIGAN CITY+ CLOUDY    77  64  65 SW15G22   29.73F
MONTICELLO +   CLOUDY    81  71  71 SW10      29.77S
RENSSELAER +   CLOUDY    77  70  78 CALM      29.76S
VALPARAISO     CLOUDY    77  65  66 W14G22    29.75F

$$

LMZ046-743>745-192100-
SOUTHERN LAKE MICHIGAN

STATION/POSITION TIME  TEMP WIND        PRES
                       AIR  DIR/SP/G
                 (UTC) (F)  (DEG/KT/KT) (MB)
BURNS HARBOR     2000   75  230/ 14/ 17   N/A
MICHIGAN CITY    2000   73  220/ 16/ 19   N/A

$$

INZ004-005-014>016-021>024-192100-
NORTH CENTRAL INDIANA

CITY           SKY/WX    TMP DP  RH WIND       PRES   REMARKS
GOSHEN         LGT RAIN  70  66  87 SW8       29.77R
LOGANSPORT +   PTSUNNY   79  68  69 SW17      29.79F
PERU/GRISSOM   PTSUNNY   83  73  72 SW18      29.79S
ROCHESTER +    PTSUNNY   77  68  73 W8        29.79S
SOUTH BEND     CLOUDY    76  69  79 SW9       29.75S
WARSAW +       LGT RAIN  70  66  88 W10G18    29.79R

$$

INZ006>009-017-018-025>027-192100-
NORTHEAST INDIANA

CITY           SKY/WX    TMP DP  RH WIND       PRES   REMARKS
ANGOLA *+      MOSUNNY   84  70  61 W14       29.77S
AUBURN +       PTSUNNY   86  64  48 SW9       29.78F
FORT WAYNE     PTSUNNY   85  69  58 SW18G25   29.78F
HUNTINGTON +   MOSUNNY   84  69  59 SW13G21   29.78S

$$

INZ028-029-035-036-043>045-051>053-192100-
WEST CENTRAL INDIANA

CITY           SKY/WX    TMP DP  RH WIND       PRES   REMARKS
GREENCASTLE +  MOSUNNY   81  70  69 S3        29.82F
LAFAYETTE      TSTM      71  67  87 NW5       29.79R
TERRE HAUTE    PTSUNNY   86  72  62 S9        29.78F

$$

INZ030>032-037>040-046>048-054>057-064-065-192100-
CENTRAL INDIANA

CITY           SKY/WX    TMP DP  RH WIND       PRES   REMARKS
ANDERSON       PTSUNNY   84  64  51 SW12      29.82F
CP ATTERBURY + MOSUNNY   86  68  54 SW13      29.83F
COLUMBUS       PTSUNNY   86  68  54 SW12G17   29.82F
GREENWOOD *+   MOSUNNY   84  72  65 W9        29.83F
INDIANAPOLIS   PTSUNNY   84  67  56 SW20      29.81F
-EAGLE CREEK   MOSUNNY   84  66  54 S8G17     29.80F
KOKOMO *+      PTSUNNY   84  70  61 SW14G23   29.79F
MARION +       MOSUNNY   83  66  56 SW15      29.81S
MT COMFORT *+  MOSUNNY   84  63  48 SW10G17   29.82F
SHELBYVILLE    PTSUNNY   84  69  60 W9        29.81F
ZIONSVILLE +   PTSUNNY   85  68  57 SW13      29.82F

$$

INZ033-034-041-042-049-050-058-059-192100-
EAST CENTRAL INDIANA

CITY           SKY/WX    TMP DP  RH WIND       PRES   REMARKS
MUNCIE         MOSUNNY   85  65  51 SW13G21   29.80F

$$

INZ060-061-067>069-081>083-085>088-192100-
SOUTHWEST INDIANA

CITY           SKY/WX    TMP DP  RH WIND       PRES   REMARKS
EVANSVILLE     PTSUNNY   86  73  65 SW10      29.82F
WASHINGTON +   CLOUDY    84  73  69 S7        29.80F

$$

INZ062-063-066-070>080-084-089>092-192100-
SOUTH CENTRAL AND SOUTHEAST INDIANA

CITY           SKY/WX    TMP DP  RH WIND       PRES   REMARKS
BLOOMINGTON    MOSUNNY   84  69  60 W8        29.83F

$$




USA.gov is the U.S. government's official web portal to all federal, state and local government web resources and services.